RADUGA 1 1 08513U 75123A 21021.78624781 -.00000034 00000-0 00000-0 0 9992 2 08513 7.7822 295.5225 0005014 201.8300 337.8545 1.00294927175034 RADUGA 2 1 09416U 76092A 21021.78930108 -.00000178 00000-0 00000-0 0 9993 2 09416 8.4345 297.3925 0028584 344.7684 209.7559 1.00275400109563 RADUGA 3 1 10159U 77071A 21020.91805178 .00000166 00000-0 00000-0 0 9995 2 10159 9.0368 299.8105 0006853 227.9295 320.0258 1.00246290157250 RADUGA 4 1 10987U 78073A 21021.71925051 -.00000259 00000-0 00000-0 0 9993 2 10987 9.6365 302.9868 0010718 351.1727 180.7263 1.00336735 99828 RADUGA 5 1 11343U 79035A 21021.78694571 -.00000058 00000-0 00000-0 0 9993 2 11343 10.0714 305.5078 0004580 128.0359 45.3068 1.00247160109579 RADUGA 6 1 11708U 80016A 21021.72178036 -.00000324 00000-0 00000-0 0 9992 2 11708 10.4027 308.3021 0000340 101.5063 78.7658 1.00279791102384 RADUGA 7 1 12003U 80081A 21021.68297837 .00000100 00000-0 00000-0 0 9990 2 12003 10.5663 310.1116 0009036 266.7928 336.3225 1.00289724103528 RADUGA 8 1 12351U 81027A 21021.48642057 .00000132 00000-0 00000+0 0 9997 2 12351 10.8909 310.7573 0081445 212.8554 344.4179 1.00389441102731 RADUGA 9 1 12618U 81069A 21020.92675507 -.00000346 00000-0 00000+0 0 9991 2 12618 11.0786 313.4046 0003332 77.3777 177.6113 1.00273755108547 RADUGA 10 1 12897U 81102A 21021.78869042 -.00000148 00000-0 00000-0 0 9993 2 12897 11.1505 314.2816 0003354 143.9138 30.0214 1.00256004 97566 RADUGA 11 1 13669U 82113A 21020.85576524 -.00000034 00000-0 00000+0 0 9994 2 13669 13.0219 326.9554 0036548 242.5130 303.8575 0.97707322102247 RADUGA 12 1 13974U 83028A 21020.92850785 -.00000127 00000-0 00000-0 0 9995 2 13974 12.1560 323.4630 0004034 46.6948 162.7432 1.00294447149594 RADUGA 13 1 14307U 83088A 21021.24982212 -.00000055 00000-0 00000-0 0 9999 2 14307 13.2351 328.5454 0018876 25.7906 139.2440 0.98173147 99575 RADUGA 14 1 14725U 84016A 21020.87003439 -.00000110 00000-0 00000-0 0 9990 2 14725 12.2985 326.9553 0004073 78.4003 105.6806 1.00245786 98317 RADUGA 15 1 15057U 84063A 21020.98888747 .00000140 00000-0 00000-0 0 9998 2 15057 12.4008 327.9362 0003461 105.2944 75.0524 1.00211193121315 RADUGA 16 1 15946U 85070A 21020.39884458 -.00000263 00000-0 00000-0 0 9991 2 15946 12.7771 332.3976 0002042 32.1379 220.9949 1.00236155102436 RADUGA 17 1 16250U 85107A 21021.76262169 -.00000098 00000-0 00000-0 0 9998 2 16250 12.8734 333.7021 0009619 166.6537 59.6782 1.00191554131917 RADUGA 18 1 16497U 86007A 21020.98975983 -.00000022 00000-0 00000-0 0 9996 2 16497 13.6395 336.2858 0072508 149.3588 26.7066 0.98812258126369 RADUGA 19 1 17046U 86082A 21021.21525608 -.00000162 00000-0 00000-0 0 9997 2 17046 13.9836 340.0524 0010288 118.7827 108.0308 0.98461561123489 RADUGA 20 1 17611U 87028A 21021.57703990 -.00000104 00000-0 00000-0 0 9993 2 17611 15.9361 343.6104 0027474 118.2535 78.8195 0.95961698119386 RADUGA 21 1 18631U 87100A 21021.76208343 -.00000290 00000-0 00000-0 0 9996 2 18631 14.0322 341.2220 0003291 56.8505 307.4243 1.00269826121316 RADUGA 22 1 19596U 88095A 21021.27664503 .00000083 00000-0 00000-0 0 9990 2 19596 13.9181 345.2911 0004831 84.4507 165.6111 1.00306006101867 RADUGA 23 1 19928U 89030A 21021.79601826 -.00000367 00000-0 00000-0 0 9991 2 19928 14.0183 347.0370 0018016 143.6770 36.6020 1.00275387115070 RADUGA 1-1 1 20083U 89048A 21020.85942916 -.00000081 00000-0 00000-0 0 9991 2 20083 14.7089 349.9705 0020991 92.1431 89.8887 0.98707308111791 RADUGA 24 1 20367U 89098A 21021.14062369 .00000094 00000-0 00000-0 0 9992 2 20367 14.5397 349.4223 0002403 19.9286 210.7543 1.00305830113186 RADUGA 25 1 20499U 90016A 21021.48055872 -.00000207 00000-0 00000-0 0 9995 2 20499 14.2955 349.9816 0002540 78.1321 135.8890 1.00376535113127 RADUGA 26 1 21016U 90112A 21021.67424469 -.00000283 00000-0 00000-0 0 9995 2 21016 14.5208 353.1889 0007891 50.5636 55.2930 1.00292617110485 RADUGA 1-2 1 21038U 90116A 21021.42831830 -.00000122 00000-0 00000-0 0 9992 2 21038 14.5588 353.2790 0008451 64.2052 293.3810 1.00330550 27555 RADUGA 27 1 21132U 91014A 21021.76202076 -.00000351 00000-0 00000-0 0 9990 2 21132 15.0774 353.0409 0005165 32.3145 137.9186 1.00293392109536 RADUGA 28 1 21821U 91087A 21021.59701927 .00000128 00000-0 00000-0 0 9996 2 21821 14.7487 356.5634 0005759 76.1237 293.5515 1.00277582106549 RADUGA 29 1 22557U 93013A 21020.87271685 -.00000344 00000-0 00000+0 0 9997 2 22557 14.8357 0.7051 0006007 69.0973 112.7533 1.00186111101903 RADUGA 30 1 22836U 93062A 21020.99630252 -.00000052 00000-0 00000-0 0 9990 2 22836 14.8274 2.6309 0004755 338.3553 207.5047 1.00269463 26217 RADUGA 1-3 1 22981U 94008A 21021.03660492 .00000037 00000-0 00000-0 0 9999 2 22981 14.8727 3.8002 0004121 28.7101 160.7232 1.00226694 98696 RADUGA 31 1 23010U 94012A 21021.67001872 -.00000339 00000-0 00000-0 0 9995 2 23010 14.8418 3.7742 0005786 43.7527 59.2597 1.00290882 98577 RADUGA 32 1 23448U 94087A 21020.99656424 -.00000062 00000-0 00000-0 0 9998 2 23448 14.7506 6.4410 0002702 232.6374 310.6126 1.00268579113090 RADUGA 1-4 1 25642U 99010A 21021.43451205 -.00000353 00000-0 00000-0 0 9990 2 25642 14.9916 18.2354 0003953 302.8747 62.9209 1.00317846 80179 RADUGA 1-5 1 26477U 00049A 21020.99941622 -.00000208 00000-0 00000-0 0 9997 2 26477 12.8209 22.2961 0006192 13.6523 169.0345 1.00337015 74638 RADUGA 1-6 1 26936U 01045A 21021.00089924 -.00000053 00000-0 00000-0 0 9993 2 26936 12.8084 28.3610 0012479 154.3594 30.3509 0.97743347 69318 RADUGA 1-7 1 28194U 04010A 21021.20674344 .00000089 00000-0 00000-0 0 9992 2 28194 11.3734 35.3864 0002621 289.4555 246.7642 1.00272630 61620 RADUGA 1M-1 1 32373U 07058A 21021.77281347 -.00000120 00000-0 00000-0 0 9997 2 32373 5.7812 67.3434 0004150 300.9030 34.4570 0.99400122 32785 RADUGA 1-8 1 34264U 09010A 21021.74219361 .00000115 00000-0 00000-0 0 9995 2 34264 8.2340 57.9451 0014913 340.6539 199.6498 0.99823687 43484 RADUGA 1M-2 1 36358U 10002A 21021.78912660 -.00000173 00000-0 00000-0 0 9995 2 36358 0.0555 243.7960 0002850 80.9279 165.7012 1.00273642 30328 RADUGA 1M-3 1 39375U 13062A 21021.85396583 .00000166 00000-0 00000-0 0 9995 2 39375 0.9713 95.5315 0006872 312.2668 56.0129 1.00273429 26355